When you browse on this site, cookies collect data to enhance your experience and personalize the content and advertising you see.
Visit our Privacy Policy to learn more. By continuing to use the site, you agree to this use of cookies and data.
  • In United Kingdom
  • List of Countries
  • For 7 days
  • Water Temperature
  • Satellite Maps
  • Weather Map
  • Weather Widgets
  • user-avatar
    Login

    Hourly Weather Mano River

    Today, 26 April, Friday

    Time Temperature Precipitation Wind Pressure Humidity
    00:00 +28°C° 0 mm 2 mps 758 mmHg 92%
    01:00 +28°C° 0 mm 2 mps 758 mmHg 92%
    02:00 +28°C° 0 mm 1 mps 758 mmHg 92%
    03:00 +28°C° 0 mm 1 mps 758 mmHg 93%
    04:00 +28°C° 0 mm 1 mps 758 mmHg 93%
    05:00 +25°C° 0 mm 0 mps 758 mmHg 94%
    06:00 +27°C° 0 mm 0 mps 758 mmHg 87%
    07:00 +29°C° 0 mm 0 mps 758 mmHg 81%
    08:00 +30°C° 0 mm 0 mps 759 mmHg 74%
    09:00 +31°C° 0 mm 0 mps 759 mmHg 71%
    10:00 +33°C° 0 mm 1 mps 759 mmHg 67%
    11:00 +35°C° 0 mm 2 mps 759 mmHg 63%
    12:00 +35°C° 0 mm 2 mps 758 mmHg 65%
    13:00 +35°C° 0 mm 3 mps 757 mmHg 66%
    14:00 +34°C° 0 mm 4 mps 757 mmHg 67%
    15:00 +34°C° 0 mm 4 mps 757 mmHg 70%
    16:00 +33°C° 0 mm 3 mps 757 mmHg 73%
    17:00 +31°C° 0 mm 3 mps 757 mmHg 76%
    18:00 +30°C° 0.4 mm 3 mps 757 mmHg 80%
    19:00 +30°C° 0.4 mm 3 mps 757 mmHg 85%
    20:00 +29°C° 0.4 mm 3 mps 758 mmHg 89%
    21:00 +29°C° 0 mm 3 mps 758 mmHg 90%
    22:00 +29°C° 0 mm 3 mps 758 mmHg 90%
    23:00 +29°C° 0 mm 3 mps 758 mmHg 90%

    Tomorrow, 27 April, Saturday

    Time Temperature Precipitation Wind Pressure Humidity
    00:00 +28°C° 0 mm 3 mps 758 mmHg 91%
    01:00 +28°C° 0 mm 3 mps 757 mmHg 91%
    02:00 +28°C° 0 mm 3 mps 757 mmHg 92%
    03:00 +28°C° 1.2 mm 3 mps 757 mmHg 92%
    04:00 +28°C° 1.2 mm 3 mps 757 mmHg 92%
    05:00 +28°C° 1.2 mm 3 mps 757 mmHg 93%
    06:00 +29°C° 1.4 mm 3 mps 758 mmHg 89%
    07:00 +29°C° 1.4 mm 3 mps 758 mmHg 86%
    08:00 +30°C° 1.4 mm 3 mps 758 mmHg 82%
    09:00 +31°C° 1 mm 3 mps 758 mmHg 77%
    10:00 +33°C° 1 mm 3 mps 758 mmHg 72%
    11:00 +35°C° 1 mm 4 mps 758 mmHg 66%
    12:00 +35°C° 0 mm 4 mps 758 mmHg 65%
    13:00 +35°C° 0 mm 5 mps 757 mmHg 63%
    14:00 +35°C° 0 mm 5 mps 756 mmHg 62%
    15:00 +34°C° 0 mm 5 mps 756 mmHg 66%
    16:00 +33°C° 0 mm 4 mps 757 mmHg 71%
    17:00 +32°C° 0 mm 4 mps 757 mmHg 76%
    18:00 +30°C° 0 mm 4 mps 757 mmHg 79%
    19:00 +30°C° 0 mm 4 mps 758 mmHg 82%
    20:00 +29°C° 0 mm 3 mps 758 mmHg 85%
    21:00 +29°C° 0 mm 3 mps 758 mmHg 86%
    22:00 +29°C° 0 mm 3 mps 759 mmHg 87%
    23:00 +29°C° 0 mm 3 mps 759 mmHg 88%

    Day after tomorrow, 28 April, Sunday

    Time Temperature Precipitation Wind Pressure Humidity
    00:00 +29°C° 0 mm 3 mps 758 mmHg 88%
    01:00 +29°C° 0 mm 3 mps 758 mmHg 89%
    02:00 +28°C° 0 mm 3 mps 757 mmHg 90%
    03:00 +28°C° 0 mm 3 mps 757 mmHg 90%
    04:00 +28°C° 0 mm 3 mps 757 mmHg 90%
    05:00 +28°C° 0 mm 3 mps 757 mmHg 90%
    06:00 +29°C° 0.1 mm 3 mps 758 mmHg 85%
    07:00 +30°C° 0.1 mm 3 mps 758 mmHg 80%
    08:00 +31°C° 0.1 mm 3 mps 759 mmHg 76%
    09:00 +33°C° 0.1 mm 3 mps 759 mmHg 73%
    10:00 +34°C° 0.1 mm 3 mps 759 mmHg 70%
    11:00 +35°C° 0.1 mm 3 mps 759 mmHg 67%
    12:00 +34°C° 0 mm 3 mps 758 mmHg 69%
    13:00 +33°C° 0 mm 3 mps 757 mmHg 71%
    14:00 +33°C° 0 mm 4 mps 756 mmHg 74%
    15:00 +33°C° 0 mm 4 mps 756 mmHg 74%
    16:00 +33°C° 0 mm 4 mps 756 mmHg 75%
    17:00 +32°C° 0 mm 4 mps 756 mmHg 75%
    18:00 +31°C° 0 mm 3 mps 757 mmHg 80%
    19:00 +30°C° 0 mm 3 mps 758 mmHg 84%
    20:00 +29°C° 0 mm 3 mps 758 mmHg 88%
    21:00 +29°C° 0 mm 3 mps 758 mmHg 89%
    22:00 +29°C° 0 mm 3 mps 758 mmHg 89%
    23:00 +29°C° 0 mm 3 mps 758 mmHg 90%

    29 April, Monday

    Time Temperature Precipitation Wind Pressure Humidity
    00:00 +29°C° 0.1 mm 3 mps 757 mmHg 90%
    01:00 +29°C° 0.1 mm 2 mps 757 mmHg 90%
    02:00 +28°C° 0.1 mm 2 mps 757 mmHg 91%
    03:00 +28°C° 0 mm 2 mps 757 mmHg 91%
    04:00 +28°C° 0 mm 2 mps 757 mmHg 91%
    05:00 +28°C° 0 mm 2 mps 757 mmHg 91%
    06:00 +29°C° 0 mm 2 mps 758 mmHg 86%
    07:00 +31°C° 0 mm 2 mps 758 mmHg 80%
    08:00 +32°C° 0 mm 2 mps 759 mmHg 75%
    09:00 +33°C° 0 mm 3 mps 759 mmHg 72%
    10:00 +34°C° 0 mm 3 mps 758 mmHg 69%
    11:00 +35°C° 0 mm 3 mps 758 mmHg 66%
    12:00 +35°C° 0.1 mm 3 mps 758 mmHg 65%
    13:00 +35°C° 0.1 mm 4 mps 757 mmHg 64%
    14:00 +35°C° 0.1 mm 4 mps 756 mmHg 63%
    15:00 +34°C° 0 mm 4 mps 756 mmHg 66%
    16:00 +34°C° 0 mm 3 mps 756 mmHg 69%
    17:00 +33°C° 0 mm 3 mps 757 mmHg 72%
    18:00 +31°C° 0 mm 3 mps 757 mmHg 76%
    19:00 +30°C° 0 mm 3 mps 758 mmHg 81%
    20:00 +29°C° 0 mm 3 mps 758 mmHg 85%
    21:00 +29°C° 0.1 mm 2 mps 758 mmHg 86%
    22:00 +29°C° 0.1 mm 2 mps 758 mmHg 88%
    23:00 +29°C° 0.1 mm 2 mps 758 mmHg 89%

    30 April, Tuesday

    Time Temperature Precipitation Wind Pressure Humidity
    00:00 +28°C° 0.2 mm 2 mps 758 mmHg 89%
    01:00 +28°C° 0.2 mm 2 mps 757 mmHg 90%
    02:00 +28°C° 0.2 mm 2 mps 757 mmHg 91%
    03:00 +28°C° 0.1 mm 2 mps 757 mmHg 91%
    04:00 +28°C° 0.1 mm 1 mps 758 mmHg 92%
    05:00 +28°C° 0.1 mm 1 mps 758 mmHg 92%
    06:00 +29°C° 0 mm 2 mps 758 mmHg 87%
    07:00 +30°C° 0 mm 2 mps 759 mmHg 81%
    08:00 +32°C° 0 mm 2 mps 759 mmHg 75%
    09:00 +33°C° 0 mm 3 mps 759 mmHg 71%
    10:00 +34°C° 0 mm 3 mps 759 mmHg 67%
    11:00 +35°C° 0 mm 3 mps 759 mmHg 63%
    12:00 +35°C° 0 mm 4 mps 758 mmHg 62%
    13:00 +35°C° 0 mm 4 mps 757 mmHg 62%
    14:00 +35°C° 0 mm 4 mps 756 mmHg 61%
    15:00 +34°C° 0 mm 4 mps 757 mmHg 65%
    16:00 +33°C° 0 mm 4 mps 757 mmHg 69%
    17:00 +32°C° 0 mm 4 mps 757 mmHg 73%
    18:00 +31°C° 0 mm 3 mps 758 mmHg 77%
    19:00 +30°C° 0 mm 3 mps 758 mmHg 81%
    20:00 +29°C° 0 mm 2 mps 759 mmHg 86%
    21:00 +29°C° 0.2 mm 2 mps 759 mmHg 87%
    22:00 +29°C° 0.2 mm 2 mps 759 mmHg 89%
    23:00 +28°C° 0.2 mm 2 mps 758 mmHg 90%

    1 May, Wednesday

    Time Temperature Precipitation Wind Pressure Humidity
    00:00 +28°C° 0.7 mm 2 mps 758 mmHg 91%
    01:00 +28°C° 0.7 mm 2 mps 758 mmHg 92%
    02:00 +28°C° 0.7 mm 1 mps 757 mmHg 92%
    03:00 +28°C° 0.2 mm 1 mps 758 mmHg 92%
    04:00 +28°C° 0.2 mm 1 mps 758 mmHg 92%
    05:00 +27°C° 0.2 mm 1 mps 758 mmHg 92%
    06:00 +29°C° 0 mm 1 mps 759 mmHg 86%
    07:00 +30°C° 0 mm 1 mps 760 mmHg 81%
    08:00 +31°C° 0 mm 1 mps 760 mmHg 75%
    09:00 +32°C° 0.1 mm 2 mps 760 mmHg 71%
    10:00 +34°C° 0.1 mm 2 mps 760 mmHg 67%
    11:00 +35°C° 0.1 mm 3 mps 759 mmHg 63%
    12:00 +35°C° 0 mm 4 mps 758 mmHg 62%
    13:00 +35°C° 0 mm 4 mps 758 mmHg 61%
    14:00 +35°C° 0 mm 5 mps 757 mmHg 60%
    15:00 +34°C° 0 mm 5 mps 757 mmHg 65%
    16:00 +33°C° 0 mm 5 mps 757 mmHg 69%
    17:00 +32°C° 0 mm 4 mps 758 mmHg 74%
    18:00 +30°C° 0.1 mm 4 mps 758 mmHg 78%
    19:00 +30°C° 0.1 mm 4 mps 759 mmHg 82%
    20:00 +29°C° 0.1 mm 3 mps 759 mmHg 86%
    21:00 +29°C° 0.1 mm 3 mps 759 mmHg 86%
    22:00 +29°C° 0.1 mm 3 mps 759 mmHg 87%
    23:00 +29°C° 0.1 mm 3 mps 759 mmHg 87%
    Show more